Tracking 22124 objects as of 23-Jan-2021
HD Live streaming from Space Station
objects crossing your sky now

COSMOS 1341

Track COSMOS 1341 now!
COSMOS 1341 is classified as:


NORAD ID: 13080
Int'l Code: 1982-016A
Perigee: 2,737.6 km
Apogee: 37,581.3 km
Inclination: 67.7 °
Period: 716.8 minutes
Semi major axis: 26530 km
RCS: 8.091 m2 (large)
Launch date: March 3, 1982
Source: Commonwealth of Independent States (former USSR) (CIS)
Launch site: PLESETSK MISSILE AND SPACE COMPLEX (PKMTR)
aabbcc
Your satellite tracking list
Your tracking list is empty




NASA's NSSDC Master Catalog

Two Line Element Set (TLE):
1 13080U 82016A   21020.35125494  .00000180  00000-0  00000-0 0  9996
2 13080  67.6764 126.6998 6566743   9.9230 358.3734  2.00902655195165
Source of the keplerian elements: AFSPC